Location: Nassau
(25.0830°N, 77.3500°W)
Time: 03:46:32
(UTC-05:00)

ISS - All Passes

Search period start: 11 February 2016 00:00
Search period end: 21 February 2016 00:00
Orbit: 398 x 408 km, 51.6° (Epoch: 11 February)

Date Brightness Start Highest point End Pass type
(mag) Time Alt. Az. Time Alt. Az. Time Alt. Az.
11 Feb - 12:57:06 10° SE 12:57:59 11° SE 12:58:53 10° ESE daylight
11 Feb - 14:31:09 10° WSW 14:34:08 33° NW 14:37:07 10° NNE daylight
11 Feb - 22:41:23 10° NNW 22:44:32 49° NE 22:47:40 10° SE night (unlit)
12 Feb - 13:38:11 10° SW 13:41:26 87° NW 13:44:41 10° NE daylight
12 Feb - 21:49:13 10° N 21:51:46 21° NE 21:54:19 10° E night (unlit)
12 Feb - 23:25:47 10° W 23:28:04 18° SW 23:30:19 10° S night (unlit)
13 Feb - 12:45:49 10° SSW 12:48:47 33° SE 12:51:46 10° ENE daylight
13 Feb - 14:23:42 10° WNW 14:25:17 13° NW 14:26:52 10° NNW daylight
13 Feb - 20:58:10 10° NNE 20:58:52 11° NE 20:59:35 10° NE night (unlit)
13 Feb - 22:32:22 10° NW 22:35:27 43° SW 22:38:32 10° SSE night (unlit)
14 Feb - 11:54:21 10° SSE 11:56:11 14° SE 11:58:00 10° E daylight
14 Feb - 13:29:36 10° WSW 13:32:24 26° NW 13:35:11 10° NNE daylight
14 Feb - 21:39:32 10° NW 21:42:45 66° NE 21:45:56 10° SE night (unlit)
15 Feb - 12:36:21 10° SW 12:39:35 65° NW 12:42:48 10° NE daylight
15 Feb - 20:47:08 10° NNW 20:49:55 26° NE 20:52:42 10° ESE night (unlit)
15 Feb - 22:24:23 10° W 22:26:07 14° SW 22:27:51 10° SSW night (unlit)
16 Feb - 11:43:42 10° SSW 11:46:49 45° SE 11:49:57 10° NE daylight
16 Feb - 13:22:43 10° NW 13:23:24 10° NW 13:24:05 10° NNW daylight
16 Feb - 19:55:24 10° N 19:56:58 13° NE 19:58:33 10° ENE visible
16 Feb - 21:30:31 10° WNW 21:33:27 33° SW 21:36:23 10° SSE night (unlit)
17 Feb - 10:51:47 10° S 10:54:07 18° SE 10:56:25 10° E daylight
17 Feb - 12:27:50 10° W 12:30:23 21° NW 12:32:57 10° N daylight
17 Feb - 20:37:27 10° NW 20:40:41 89° NE 20:43:54 10° SE night (unlit)
18 Feb - 11:34:18 10° WSW 11:37:27 48° NW 11:40:37 10° NNE daylight
18 Feb - 19:44:49 10° NNW 19:47:48 33° NE 19:50:46 10° ESE visible
18 Feb - 21:23:10 10° WSW 21:23:55 11° SW 21:24:41 10° SW night (unlit)
19 Feb - 10:41:23 10° SSW 10:44:35 60° SE 10:47:48 10° NE daylight
19 Feb - 18:52:43 10° N 18:54:47 16° NE 18:56:51 10° E visible
19 Feb - 20:28:27 10° WNW 20:31:10 25° SW 20:33:54 10° S visible
20 Feb - 09:49:07 10° S 09:51:46 23° SE 09:54:26 10° ENE daylight
20 Feb - 11:25:52 10° W 11:28:08 17° NW 11:30:24 10° N daylight
20 Feb - 19:35:08 10° NW 19:38:20 69° SW 19:41:33 10° SSE visible
